Ottumwa, IA

12:23 PM CST on January 17, 2017 (GMT -0600)
Ottumwa Industrial

Weather History for KOTM - March, 2013

Change the Weather History Date:

Friday, March 8, 2013

  Actual Average Record
Temperature  
Mean Temperature 32 °F 36 °F  
Max Temperature 41 °F 45 °F 75 °F (1977)
Min Temperature 22 °F 26 °F -7 °F (1943)
Degree Days  
Heating Degree Days 33 30  
Month to date heating degree days 316 249  
Since 1 July heating degree days 4843 5134  
Cooling Degree Days 0 0  
Month to date cooling degree days 0 0  
Year to date cooling degree days 0 0  
Moisture  
Dew Point 27 °F    
Average Humidity 80    
Maximum Humidity 96    
Minimum Humidity 64    
Precipitation  
Precipitation T in 0.07 in 1.57 in (1998)
Month to date precipitation 0.15 0.54  
Year to date precipitation 3.48 2.72  
Sea Level Pressure  
Sea Level Pressure 30.28 in    
Wind  
Wind Speed 11 mph (ESE)    
Max Wind Speed 17 mph    
Max Gust Speed 21 mph    
Visibility 7 miles    
Events Rain    
T = Trace of Precipitation, MM = Missing Value Source: NWS Daily Summary

Daily Weather History Graph

Daily Weather History Graph

Search for Another Location

Airport or City:

Trip Planner

Search our weather history database for the weather conditions in past years. The results will help you decide how hot, cold, wet, or windy it might be!

Date:

Astronomy

Mar. 08, 2013 Rise Set
Actual Time 6:32 AM CST 6:09 PM CST
Civil Twilight 6:05 AM CST 6:36 PM CST
Nautical Twilight 5:33 AM CST 7:08 PM CST
Astronomical Twilight 5:01 AM CST 7:40 PM CST
Moon 4:18 AM CST (3/8) 3:03 PM CST (3/8)
Length of Visible Light 12h 31m
Length of Day
11h 36m
Waning Crescent, 11% of the Moon is Illuminated
Mar 8
Waning Crescent
Mar 11
New
Mar 19
First Quarter
Mar 27
Full
Apr 2
Last Quarter

Hourly Weather History & Observations

Time (CST) Temp. Windchill Dew Point Humidity Pressure Visibility Wind Dir Wind Speed Gust Speed Precip Events Conditions
12:53 AM 21.9 °F 11.7 °F 19.0 °F 89% 30.35 in 5.0 mi ESE 9.2 mph - N/A   Clear
1:53 AM 24.1 °F 13.1 °F 21.0 °F 88% 30.35 in 6.0 mi ESE 11.5 mph - N/A   Clear
2:53 AM 24.1 °F 13.7 °F 21.0 °F 88% 30.33 in 6.0 mi SE 10.4 mph - N/A   Clear
3:53 AM 24.1 °F 15.2 °F 21.0 °F 88% 30.32 in 6.0 mi ESE 8.1 mph - N/A   Clear
4:53 AM 24.1 °F 15.2 °F 21.0 °F 88% 30.33 in 6.0 mi ESE 8.1 mph - N/A   Clear
5:53 AM 23.0 °F 13.1 °F 21.0 °F 92% 30.34 in 5.0 mi ESE 9.2 mph - N/A   Clear
6:53 AM 23.0 °F 12.4 °F 21.0 °F 92% 30.33 in 4.0 mi ESE 10.4 mph - N/A   Clear
7:53 AM 25.0 °F 15.5 °F 23.0 °F 92% 30.35 in 4.0 mi SE 9.2 mph - N/A   Clear
8:53 AM 30.9 °F 20.2 °F 26.1 °F 82% 30.35 in 6.0 mi SSE 15.0 mph - N/A   Haze
9:53 AM 34.0 °F 25.5 °F 27.0 °F 75% 30.34 in 8.0 mi SE 11.5 mph - N/A   Clear
10:53 AM 37.0 °F 28.9 °F 28.0 °F 70% 30.33 in 10.0 mi SSE 12.7 mph - N/A   Clear
11:53 AM 39.0 °F 30.3 °F 28.0 °F 65% 30.31 in 10.0 mi SSE 16.1 mph - N/A   Clear
12:53 PM 39.9 °F 33.4 °F 30.0 °F 68% 30.29 in 10.0 mi ESE 10.4 mph - N/A   Clear
1:53 PM 39.9 °F 33.9 °F 32.0 °F 73% 30.27 in 9.0 mi ESE 9.2 mph - N/A   Clear
2:53 PM 39.9 °F 33.9 °F 30.9 °F 70% 30.27 in 9.0 mi ESE 9.2 mph - N/A   Clear
3:53 PM 37.9 °F 30.9 °F 30.9 °F 76% 30.26 in 7.0 mi ESE 10.4 mph - N/A   Clear
4:53 PM 37.0 °F 29.3 °F 30.0 °F 76% 30.25 in 7.0 mi ESE 11.5 mph - N/A   Clear
5:53 PM 36.0 °F 27.5 °F 30.0 °F 79% 30.23 in 7.0 mi ESE 12.7 mph - N/A   Clear
6:53 PM 36.0 °F 27.5 °F 30.0 °F 79% 30.22 in 8.0 mi ESE 12.7 mph - N/A   Mostly Cloudy
7:53 PM 36.0 °F 26.7 °F 30.0 °F 79% 30.19 in 7.0 mi ESE 15.0 mph - N/A   Mostly Cloudy
8:53 PM 36.0 °F 27.5 °F 30.9 °F 82% 30.18 in 7.0 mi SE 12.7 mph - N/A   Partly Cloudy
9:53 PM 37.0 °F 29.8 °F 32.0 °F 82% 30.18 in 8.0 mi SE 10.4 mph - 0.00 in Rain Light Rain
10:53 PM 36.0 °F 29.0 °F 32.0 °F 86% 30.15 in 7.0 mi ESE 9.2 mph - 0.00 in   Overcast
11:53 PM 36.0 °F 28.5 °F 32.0 °F 86% 30.12 in 7.0 mi ESE 10.4 mph - 0.00 in   Overcast